Flag for Canada Weather past 2 weeks in Delta, British Columbia, Canada

Now
52 °F

More clouds than sun.


Feels Like: 51 °F
Forecast: 46 / 51 °F
Wind: 3 mph from Northwest

Location: Vancouver International Air-Port

Current Time: Oct 24, 2014 at 6:36:54 PM

Latest Report: Oct 24, 2014 at 6:00 PM


Visibility: 30 mi

Pressure: 29.93 "Hg

Humidity: 82%

Dew point: 46 °F

Location of DeltaLocation

Historic Weather in Delta — Graph

°F

Delta temperature yesterday

Maximum temperature yesterday: 54 °F (at 1:00 AM)
Minimum temperature yesterday: 46 °F (at 9:00 PM)
Average temperature yesterday: 51 °F

Past Weeks' High & Low Weather Summary

 TemperatureHumidityPressure
High68 °F (Oct 19, 12:00 PM)100% (Oct 9, 8:00 PM)30.22 "Hg (Oct 9, 8:00 PM)
Low46 °F (Oct 23, 9:00 PM)63% (Oct 16, 4:00 PM)29.48 "Hg (Oct 22, 8:00 PM)
Average56 °F88%29.82 "Hg
* Reported Oct 9 5:00 PM — Oct 24 5:00 PM, Delta, Weather by CustomWeather, © 2014

Note: Actual official high and low records may vary slightly from our data, if they occured in-between our weather recording intervals... More about our weather records

Advertising

Delta weather history for previous 24 hours

 ConditionsComfort  
Time TempWeatherWind HumidityBarometerVisibility
5:00 PM
Oct 24
55 °FOvercast.6 mph72%29.95 "Hg30 mi
4:00 PM55 °FMore clouds than sun.6 mph67%29.98 "Hg20 mi
3:00 PM57 °FMostly cloudy.9 mph63%30.00 "Hg20 mi
2:00 PM55 °FOvercast.8 mph67%30.03 "Hg20 mi
1:00 PM55 °FOvercast.10 mph67%30.05 "Hg20 mi
12:00 PM54 °FOvercast.9 mph72%30.06 "Hg20 mi
11:00 AM54 °FOvercast.8 mph77%30.08 "Hg20 mi
10:00 AM52 °FCloudy.9 mph82%30.08 "Hg20 mi
9:00 AM50 °FPartly sunny.10 mph88%30.07 "Hg15 mi
8:00 AM48 °FMostly cloudy.9 mph94%30.06 "Hg15 mi
7:00 AM48 °FMostly cloudy.6 mph94%30.05 "Hg15 mi
6:00 AM48 °FOvercast.6 mph94%30.03 "Hg15 mi
5:00 AM48 °FPassing clouds.6 mph94%30.03 "Hg15 mi
4:00 AM48 °FMostly cloudy.5 mph94%30.03 "Hg15 mi
3:00 AM50 °FMostly cloudy.7 mph88%30.02 "Hg15 mi
2:00 AM48 °FOvercast.7 mph94%30.01 "Hg15 mi
1:00 AM48 °FLight rain. Partly cloudy.6 mph94%30.01 "Hg15 mi
12:00 AM48 °FLight rain. Mostly cloudy.9 mph94%30.00 "Hg12 mi
11:00 PM
Oct 23
48 °FMostly cloudy.8 mph94%29.98 "Hg15 mi
10:00 PM46 °FPassing clouds.8 mph87%29.95 "Hg15 mi
9:00 PM46 °FPassing clouds.6 mph87%29.93 "Hg15 mi
8:00 PM50 °FPartly cloudy.2 mph82%29.90 "Hg15 mi
7:00 PM50 °FPartly sunny.7 mph82%29.87 "Hg15 mi
6:00 PM52 °FBroken clouds.13 mph82%29.85 "Hg15 mi
Weather by CustomWeather, © 2014

See weather overviewHow to use our weather pages